Location: Cran-Gévrier
(45.9039°N, 6.1012°E)
Time: 10:10:03
(UTC+00:00)

Lacrosse 5 rocket - Pass Details

Date: 09 February 2023
Orbit: 455 x 612 km, 57.0° (Epoch: 30 March)

Event Time Altitude Azimuth Distance (km) Brightness Sun altitude
Rises 18:30:07 0° 290° (WNW) 2,493 5.9 -17.4°
Reaches altitude 10° 18:33:51 10° 250° (WSW) 1,638 4.9 -18.0°
Maximum altitude 18:34:39 11° 237° (WSW) 1,607 4.6 -18.2°
Drops below altitude 10° 18:35:29 10° 225° (SW) 1,650 4.4 -18.3°
Sets 18:39:19 0° 185° (S) 2,566 4.8 -19.0°
